Météo par heure à Allaman

Ce jour, 15 Mai, Samedi

Heure Température Précipitation Vent Pression Humidité
00:00 +5°C° 0 mm 2 m/s 715 mmHg 93%
01:00 +5°C° 0 mm 2 m/s 715 mmHg 93%
02:00 +6°C° 0 mm 1 m/s 715 mmHg 93%
03:00 +7°C° 0 mm 1 m/s 714 mmHg 93%
04:00 +7°C° 0 mm 1 m/s 714 mmHg 91%
05:00 +7°C° 0 mm 2 m/s 714 mmHg 90%
06:00 +8°C° 0 mm 2 m/s 714 mmHg 89%
07:00 +8°C° 0.2 mm 3 m/s 714 mmHg 88%
08:00 +8°C° 0.2 mm 4 m/s 713 mmHg 86%
09:00 +8°C° 0.2 mm 5 m/s 713 mmHg 85%
10:00 +8°C° 0.8 mm 4 m/s 713 mmHg 89%
11:00 +7°C° 0.8 mm 4 m/s 713 mmHg 92%
12:00 +7°C° 0.8 mm 4 m/s 713 mmHg 96%
13:00 +7°C° 1.4 mm 4 m/s 713 mmHg 96%
14:00 +8°C° 1.4 mm 3 m/s 713 mmHg 96%
15:00 +8°C° 1.4 mm 3 m/s 713 mmHg 97%
16:00 +8°C° 0.7 mm 3 m/s 713 mmHg 97%
17:00 +8°C° 0.7 mm 3 m/s 713 mmHg 97%
18:00 +8°C° 0.7 mm 3 m/s 713 mmHg 97%
19:00 +8°C° 0.8 mm 3 m/s 713 mmHg 97%
20:00 +9°C° 0.8 mm 3 m/s 714 mmHg 97%
21:00 +9°C° 0.8 mm 3 m/s 714 mmHg 97%
22:00 +8°C° 0.4 mm 3 m/s 714 mmHg 97%
23:00 +8°C° 0.4 mm 3 m/s 714 mmHg 96%

Demain, 16 Mai, Dimanche

Heure Température Précipitation Vent Pression Humidité
00:00 +8°C° 0.4 mm 2 m/s 714 mmHg 96%
01:00 +8°C° 0 mm 2 m/s 713 mmHg 96%
02:00 +8°C° 0 mm 2 m/s 713 mmHg 96%
03:00 +8°C° 0 mm 2 m/s 712 mmHg 95%
04:00 +8°C° 0.1 mm 2 m/s 712 mmHg 95%
05:00 +9°C° 0.1 mm 2 m/s 712 mmHg 95%
06:00 +9°C° 0.1 mm 2 m/s 712 mmHg 95%
07:00 +10°C° 1 mm 2 m/s 712 mmHg 96%
08:00 +10°C° 1 mm 2 m/s 712 mmHg 96%
09:00 +10°C° 1 mm 2 m/s 712 mmHg 97%
10:00 +10°C° 0.7 mm 3 m/s 712 mmHg 96%
11:00 +10°C° 0.7 mm 3 m/s 712 mmHg 96%
12:00 +10°C° 0.7 mm 3 m/s 712 mmHg 96%
13:00 +11°C° 0.8 mm 4 m/s 712 mmHg 94%
14:00 +10°C° 0.8 mm 5 m/s 712 mmHg 92%
15:00 +11°C° 0.8 mm 6 m/s 712 mmHg 90%
16:00 +10°C° 1 mm 6 m/s 712 mmHg 90%
17:00 +10°C° 1 mm 5 m/s 712 mmHg 91%
18:00 +9°C° 1 mm 5 m/s 713 mmHg 91%
19:00 +9°C° 0.3 mm 5 m/s 713 mmHg 92%
20:00 +8°C° 0.3 mm 4 m/s 713 mmHg 92%
21:00 +7°C° 0.3 mm 4 m/s 714 mmHg 93%
22:00 +7°C° 0.3 mm 4 m/s 714 mmHg 93%
23:00 +7°C° 0.3 mm 4 m/s 714 mmHg 93%

Après-demain, 17 Mai, Lundi

Heure Température Précipitation Vent Pression Humidité
00:00 +6°C° 0.3 mm 4 m/s 714 mmHg 94%
01:00 +6°C° 0.2 mm 4 m/s 714 mmHg 94%
02:00 +6°C° 0.2 mm 4 m/s 714 mmHg 94%
03:00 +5°C° 0.2 mm 3 m/s 714 mmHg 94%
04:00 +6°C° 0.1 mm 4 m/s 715 mmHg 92%
05:00 +6°C° 0.1 mm 4 m/s 715 mmHg 90%
06:00 +7°C° 0.1 mm 4 m/s 715 mmHg 89%
07:00 +8°C° 0.2 mm 5 m/s 715 mmHg 83%
08:00 +9°C° 0.2 mm 5 m/s 715 mmHg 78%
09:00 +10°C° 0.2 mm 6 m/s 715 mmHg 73%
10:00 +10°C° 0.2 mm 6 m/s 715 mmHg 72%
11:00 +12°C° 0.2 mm 5 m/s 716 mmHg 70%
12:00 +12°C° 0.2 mm 5 m/s 716 mmHg 69%
13:00 +12°C° 0.2 mm 5 m/s 716 mmHg 69%
14:00 +13°C° 0.2 mm 5 m/s 716 mmHg 68%
15:00 +13°C° 0.2 mm 5 m/s 716 mmHg 67%
16:00 +12°C° 0.4 mm 5 m/s 716 mmHg 74%
17:00 +11°C° 0.4 mm 4 m/s 716 mmHg 81%
18:00 +10°C° 0.4 mm 4 m/s 716 mmHg 88%
19:00 +10°C° 0.8 mm 4 m/s 717 mmHg 90%
20:00 +8°C° 0.8 mm 4 m/s 717 mmHg 93%
21:00 +8°C° 0.8 mm 3 m/s 718 mmHg 95%
22:00 +7°C° 0.7 mm 4 m/s 718 mmHg 95%
23:00 +7°C° 0.7 mm 4 m/s 718 mmHg 95%

18 Mai, Mardi

Heure Température Précipitation Vent Pression Humidité
00:00 +7°C° 0.7 mm 4 m/s 718 mmHg 95%
01:00 +7°C° 0.5 mm 4 m/s 718 mmHg 95%
02:00 +7°C° 0.5 mm 3 m/s 719 mmHg 94%
03:00 +7°C° 0.5 mm 3 m/s 719 mmHg 94%
04:00 +7°C° 0.2 mm 3 m/s 719 mmHg 93%
05:00 +7°C° 0.2 mm 3 m/s 720 mmHg 93%
06:00 +7°C° 0.2 mm 3 m/s 720 mmHg 92%
07:00 +7°C° 0.2 mm 3 m/s 720 mmHg 90%
08:00 +7°C° 0.2 mm 4 m/s 721 mmHg 87%
09:00 +7°C° 0.2 mm 4 m/s 721 mmHg 85%
10:00 +8°C° 0.3 mm 4 m/s 721 mmHg 81%
11:00 +10°C° 0.3 mm 4 m/s 721 mmHg 78%
12:00 +11°C° 0.3 mm 4 m/s 721 mmHg 75%
13:00 +11°C° 0.3 mm 4 m/s 721 mmHg 75%
14:00 +11°C° 0.3 mm 3 m/s 721 mmHg 74%
15:00 +11°C° 0.3 mm 3 m/s 721 mmHg 74%
16:00 +10°C° 0.3 mm 3 m/s 721 mmHg 78%
17:00 +10°C° 0.3 mm 3 m/s 721 mmHg 82%
18:00 +9°C° 0.3 mm 2 m/s 722 mmHg 85%
19:00 +8°C° 0.2 mm 2 m/s 722 mmHg 88%
20:00 +7°C° 0.2 mm 2 m/s 723 mmHg 90%
21:00 +6°C° 0.2 mm 2 m/s 723 mmHg 93%
22:00 +7°C° 0.2 mm 2 m/s 723 mmHg 94%
23:00 +7°C° 0.2 mm 2 m/s 723 mmHg 94%

19 Mai, Mercredi

Heure Température Précipitation Vent Pression Humidité
00:00 +7°C° 0.2 mm 3 m/s 723 mmHg 95%
01:00 +7°C° 0.1 mm 3 m/s 723 mmHg 95%
02:00 +7°C° 0.1 mm 3 m/s 722 mmHg 95%
03:00 +7°C° 0.1 mm 3 m/s 722 mmHg 95%
04:00 +7°C° 0.2 mm 3 m/s 722 mmHg 95%
05:00 +7°C° 0.2 mm 3 m/s 722 mmHg 94%
06:00 +8°C° 0.2 mm 3 m/s 722 mmHg 94%
07:00 +8°C° 0.4 mm 3 m/s 722 mmHg 91%
08:00 +9°C° 0.4 mm 3 m/s 722 mmHg 88%
09:00 +10°C° 0.4 mm 3 m/s 723 mmHg 85%
10:00 +10°C° 0.5 mm 3 m/s 723 mmHg 84%
11:00 +10°C° 0.5 mm 3 m/s 723 mmHg 83%
12:00 +11°C° 0.5 mm 3 m/s 723 mmHg 82%
13:00 +11°C° 0.3 mm 3 m/s 723 mmHg 80%
14:00 +12°C° 0.3 mm 2 m/s 723 mmHg 78%
15:00 +12°C° 0.3 mm 2 m/s 723 mmHg 76%
16:00 +12°C° 0 mm 1 m/s 723 mmHg 77%
17:00 +11°C° 0 mm 1 m/s 723 mmHg 78%
18:00 +11°C° 0 mm 1 m/s 723 mmHg 80%
19:00 +10°C° 0 mm 1 m/s 723 mmHg 82%
20:00 +8°C° 0 mm 1 m/s 723 mmHg 85%
21:00 +6°C° 0 mm 1 m/s 724 mmHg 88%
22:00 +6°C° 0 mm 1 m/s 723 mmHg 87%
23:00 +6°C° 0 mm 1 m/s 723 mmHg 86%

20 Mai, Jeudi

Heure Température Précipitation Vent Pression Humidité
00:00 +6°C° 0 mm 1 m/s 722 mmHg 85%
01:00 +5°C° 0 mm 1 m/s 722 mmHg 84%
02:00 +5°C° 0 mm 1 m/s 722 mmHg 84%
03:00 +5°C° 0 mm 1 m/s 722 mmHg 84%
04:00 +7°C° 0 mm 1 m/s 721 mmHg 80%
05:00 +8°C° 0 mm 1 m/s 721 mmHg 76%
06:00 +9°C° 0 mm 1 m/s 721 mmHg 72%
07:00 +11°C° 0 mm 1 m/s 721 mmHg 66%
08:00 +12°C° 0 mm 1 m/s 720 mmHg 60%
09:00 +14°C° 0 mm 2 m/s 720 mmHg 54%
10:00 +15°C° 0 mm 2 m/s 720 mmHg 50%
11:00 +17°C° 0 mm 3 m/s 720 mmHg 46%
12:00 +18°C° 0 mm 3 m/s 719 mmHg 42%
13:00 +19°C° 0 mm 4 m/s 719 mmHg 44%
14:00 +20°C° 0 mm 4 m/s 719 mmHg 45%
15:00 +20°C° 0 mm 5 m/s 718 mmHg 47%
16:00 +19°C° 0.2 mm 5 m/s 718 mmHg 58%
17:00 +16°C° 0.3 mm 5 m/s 718 mmHg 69%
18:00 +14°C° 0.3 mm 6 m/s 718 mmHg 80%
19:00 +14°C° 0.9 mm 5 m/s 718 mmHg 85%
20:00 +13°C° 0.9 mm 5 m/s 719 mmHg 90%
21:00 +12°C° 0.9 mm 5 m/s 719 mmHg 95%
22:00 +11°C° 0.3 mm 4 m/s 719 mmHg 94%
23:00 +10°C° 0.3 mm 4 m/s 720 mmHg 93%
Voir plus

Nous avons besoin de votre consentement

Meteoprog et ses fournisseurs de services peuvent stocker et accéder à des données personnelles telles que des cookies, des identifiants d'appareils ou d'autres technologies similaires sur votre appareil et traiter ces données pour personnaliser le contenu et les publicités, ainsi que pour fournir des fonctionnalités de médias sociaux et analyser le trafic.

  • Stocker et/ou accéder à des informations sur votre appareil

    Des cookies, des identifiants d'appareils ou d'autres informations peuvent être stockés ou accessibles sur votre appareil aux fins indiquées ci-dessus.

  • Annonces et contenus personnalisés, mesure des annonces et des contenus, connaissance de l'audience et développement de produits

    Les annonces et le contenu peuvent être personnalisés en fonction d'un profil. D'autres données peuvent être ajoutées pour mieux personnaliser les annonces et le contenu. Les performances des publicités et du contenu peuvent être mesurées. Il est possible d'obtenir des informations sur le public qui a vu les publicités et le contenu. Ces données peuvent être utilisées pour développer ou améliorer l'expérience de l'utilisateur, les systèmes et les logiciels.

En cliquant sur "J'accepte", vous autorisez l'utilisation de cookies, des identifiants d'appareils, des balises web ou d'autres technologies similaires. Vos paramètres peuvent être modifiés dans le navigateur de votre appareil.

Dans certains cas, des intérêts légitimes peuvent être invoqués plutôt qu'un consentement. Vous pouvez en savoir plus à ce sujet dans notre Politique de confidentialité et de cookies.